Location: R�serve Fauniques des Laurentides
(47.3100°N, 71.1900°W)
Time: 14:02:06
(UTC-05:00)

Amateur Radio Satellites - All Passes

Search period start: 21 November 2014 13:32
Search period end: 22 November 2014 13:32
Location: R�serve Fauniques des Laurentides, 47.3100°N, 71.1900°W

Satellite Date Start Highest point End Downlink Frequencies (MHz)
Time Altitude Azimuth
HORYU 2 21 Nov 13:46:14 13:50:35 59° 72° (ENE) 13:54:58 437.375
Oscar 19 21 Nov 13:57:05 13:59:54 15° 272° (W) 14:02:44 437.125/150
SO-50 21 Nov 13:57:15 14:01:36 33° 243° (WSW) 14:05:58 436.795
ITUPSAT 1 21 Nov 14:09:27 14:14:00 42° 292° (WNW) 14:18:30 437.325
JAS-2 21 Nov 14:12:18 14:17:39 21° 51° (NE) 14:23:05 435.910
SWISSCUBE 21 Nov 14:22:45 14:26:56 30° 295° (WNW) 14:31:06 437.505
CUSAT 1 21 Nov 14:30:17 14:30:53 11° 292° (WNW) 14:31:28 437.405
DANDE 21 Nov 14:32:46 14:34:03 12° 290° (WNW) 14:35:18 436.750
STARS 21 Nov 14:37:15 14:41:39 69° 102° (ESE) 14:46:00 437.465
ITAMSAT 1 21 Nov 14:38:17 14:41:23 16° 271° (W) 14:44:30 435.822/435.867
Gurwin Techsat 1B 21 Nov 14:38:46 14:43:11 26° 267° (W) 14:47:37 435.225
AUBIESAT-1 21 Nov 14:39:03 14:42:44 22° 304° (NW) 14:46:28 437.475
M-CUBED/EXP-1 PRIME 21 Nov 14:40:42 14:44:14 20° 305° (NW) 14:47:48 437.505
AO-7 21 Nov 14:41:15 14:49:32 80° 68° (ENE) 14:57:53 29.400- 29.500
BEESAT 21 Nov 14:55:43 14:58:56 18° 301° (WNW) 15:02:08 436.000
RS-15 21 Nov 14:57:49 15:05:31 23° 100° (E) 15:13:10 29.354- 29.394
KKS-1 21 Nov 15:07:15 15:11:28 43° 291° (WNW) 15:15:39 437.445
YUBILEINY 21 Nov 15:20:38 15:27:59 32° 278° (W) 15:35:18 435.215
HORYU 2 21 Nov 15:24:55 15:27:40 16° 270° (W) 15:30:25 437.375
O/OREOS (USA 219) 21 Nov 15:28:19 15:32:31 38° 57° (ENE) 15:36:42 437.305
MOZHAYETS 4 21 Nov 15:36:14 15:38:49 15° 88° (E) 15:41:23
CUTE-I 21 Nov 15:39:57 15:43:38 19° 57° (ENE) 15:47:19 437.470
MaSat-1 21 Nov 15:45:26 15:48:16 35° 115° (ESE) 15:50:53 437.345
JAS-2 21 Nov 15:53:55 16:01:26 76° 72° (ENE) 16:09:20 435.910
STARS 21 Nov 16:15:02 16:17:38 16° 301° (WNW) 16:20:13 437.465
Cubesat XI-IV 21 Nov 16:35:05 16:40:16 51° 69° (ENE) 16:45:27 437.490
AO-7 21 Nov 16:36:36 16:43:11 26° 268° (W) 16:49:49 29.400- 29.500
PHONESAT 2.4 21 Nov 16:50:02 16:52:25 16° 159° (SSE) 16:54:49 2401.200-2431.200
PRISM 21 Nov 17:01:37 17:04:43 19° 92° (E) 17:07:47 437.425
RS-15 21 Nov 17:05:09 17:16:05 82° 123° (ESE) 17:27:05 29.354- 29.394
O/OREOS (USA 219) 21 Nov 17:08:03 17:11:45 26° 256° (WSW) 17:15:26 437.305
MOZHAYETS 4 21 Nov 17:11:54 17:16:34 71° 286° (WNW) 17:21:12
STRAND 1 21 Nov 17:12:07 17:13:21 11° 86° (E) 17:14:34 437.568
GONETS M04 21 Nov 17:16:48 17:22:27 18° 53° (NE) 17:28:04
CUTE-I 21 Nov 17:17:46 17:23:08 76° 256° (WSW) 17:28:31 437.470
VERMONT LUNAR 21 Nov 17:20:43 17:23:39 23° 168° (SSE) 17:26:35 437.305
MaSat-1 21 Nov 17:21:28 17:23:05 14° 310° (NW) 17:24:37 437.345
JAS-2 21 Nov 17:40:58 17:47:09 27° 272° (W) 17:53:35 435.910
Cubesat XI-IV 21 Nov 18:16:13 18:20:37 26° 267° (W) 18:25:03 437.490
PHONESAT 2.4 21 Nov 18:27:23 18:30:36 28° 176° (S) 18:33:49 2401.200-2431.200
CUTE 1.7 & AOD 2 21 Nov 18:29:38 18:31:56 15° 60° (ENE) 18:34:15 437.475
HO-68 21 Nov 18:33:49 18:40:16 38° 59° (ENE) 18:46:44 435.675
PRISM 21 Nov 18:36:26 18:40:31 45° 290° (WNW) 18:44:33 437.425
CUBESAT XI-V 21 Nov 18:39:01 18:43:44 73° 102° (ESE) 18:48:23 437.345
STRAND 1 21 Nov 18:48:14 18:53:23 79° 104° (ESE) 18:58:29 437.568
DOVE 4 21 Nov 18:49:41 18:52:06 14° 60° (ENE) 18:54:27 437.250
MOZHAYETS 4 21 Nov 18:51:59 18:52:57 11° 305° (NW) 18:53:54
VERMONT LUNAR 21 Nov 18:58:29 19:01:37 27° 185° (S) 19:04:44 437.305
CUTE-I 21 Nov 19:02:41 19:04:06 11° 275° (W) 19:05:31 437.470
DX 1 21 Nov 19:05:28 19:07:34 13° 58° (ENE) 19:09:41 434.975-435.025
GOMX 1 21 Nov 19:07:10 19:11:10 27° 66° (ENE) 19:14:58 467.674
SEEDS 21 Nov 19:07:28 19:11:03 28° 67° (ENE) 19:14:40 437.485
BRITE-PL 21 Nov 19:09:58 19:14:39 38° 69° (ENE) 19:19:02 437.365/2234.400
SHINDAISAT 21 Nov 19:11:08 19:13:03 61° 52° (NE) 19:14:57 437.305
GONETS M04 21 Nov 19:12:20 19:21:13 70° 78° (ENE) 19:29:59
RS-15 21 Nov 19:19:24 19:29:36 43° 331° (NNW) 19:40:01 29.354- 29.394
AIST 1 21 Nov 19:23:21 19:27:20 35° 91° (E) 19:31:23
CANX-2 21 Nov 19:27:53 19:32:00 56° 72° (ENE) 19:36:10 2200.000
ZACube-1 21 Nov 19:31:10 19:31:38 10° 57° (ENE) 19:32:06 437.345
AAUSAT CUBESAT 2 21 Nov 19:33:58 19:37:51 39° 70° (ENE) 19:41:45 437.432
PCSat 21 Nov 19:44:45 19:49:23 30° 111° (ESE) 19:54:03 145.827
COMPASS 1 21 Nov 19:45:34 19:49:39 59° 73° (ENE) 19:53:47 437.405
HUMSAT D 21 Nov 19:51:27 19:51:46 10° 57° (ENE) 19:52:04 437.325/437.525
CINEMA 3 21 Nov 19:59:58 20:04:04 38° 69° (ENE) 20:08:03 145.822/145.860
CUTE 1.7 & AOD 2 21 Nov 20:03:10 20:07:22 68° 258° (WSW) 20:11:36 437.475
DELFI C3 21 Nov 20:03:59 20:07:44 37° 69° (ENE) 20:11:30 145.870
FUNcube-1 21 Nov 20:04:32 20:07:44 21° 64° (ENE) 20:10:54 145.935
PHONESAT 2.4 21 Nov 20:05:52 20:08:52 23° 193° (SSW) 20:11:52 2401.200-2431.200
CUBEBUG 2 21 Nov 20:07:09 20:10:53 29° 67° (ENE) 20:14:32 437.445
UKube-1 21 Nov 20:08:23 20:12:34 48° 70° (ENE) 20:16:47 .
50 SAT 21 Nov 20:11:02 20:12:59 13° 60° (ENE) 20:14:57 437.505
UWE-3 21 Nov 20:17:34 20:21:22 32° 68° (ENE) 20:25:07 435.000/436.395/437.385
CUBESAT XI-V 21 Nov 20:17:46 20:20:37 16° 301° (WNW) 20:23:26 437.345
HO-68 21 Nov 20:20:47 20:27:46 53° 259° (W) 20:34:48 435.675
Oscar 11 21 Nov 20:23:22 20:27:39 70° 74° (ENE) 20:31:57 145.826/435.025
DOVE 4 21 Nov 20:24:39 20:29:23 79° 257° (WSW) 20:33:51 437.250
STRAND 1 21 Nov 20:28:41 20:31:58 17° 303° (WNW) 20:35:13 437.568
ESTCUBE 1 21 Nov 20:31:01 20:33:08 13° 57° (ENE) 20:35:15 437.505/2401.250
VERMONT LUNAR 21 Nov 20:37:14 20:39:29 16° 201° (SSW) 20:41:44 437.305
DX 1 21 Nov 20:38:48 20:43:12 83° 256° (WSW) 20:47:37 434.975-435.025
SEEDS 21 Nov 20:43:09 20:46:51 30° 265° (W) 20:50:35 437.485
GOMX 1 21 Nov 20:44:33 20:49:10 40° 262° (W) 20:53:31 467.674
VELOX 1 21 Nov 20:47:20 20:51:32 40° 69° (ENE) 20:55:44 145.980
BRITE-PL 21 Nov 20:48:44 20:53:13 30° 265° (W) 20:57:26 437.365/2234.400
BEESAT 3 21 Nov 21:00:49 21:04:46 48° 121° (ESE) 21:08:48 437.485
AIST 1 21 Nov 21:01:28 21:05:06 25° 290° (WNW) 21:08:46
ZACube-1 21 Nov 21:03:05 21:07:20 82° 75° (ENE) 21:11:32 437.345
CANX-2 21 Nov 21:05:47 21:08:20 16° 270° (W) 21:10:53 2200.000
GONETS M04 21 Nov 21:10:04 21:17:17 30° 279° (W) 21:24:29
AISAT 21 Nov 21:10:13 21:14:41 69° 73° (ENE) 21:19:09 437.250
AAUSAT CUBESAT 2 21 Nov 21:10:32 21:13:42 21° 267° (W) 21:16:54 437.432
BEESAT 2 21 Nov 21:12:08 21:16:11 56° 122° (ESE) 21:20:19 435.950
TIGRISAT 21 Nov 21:16:44 21:18:43 13° 89° (E) 21:20:43 435.000
HUMSAT D 21 Nov 21:22:44 21:26:53 82° 76° (ENE) 21:31:02 437.325/437.525
COMPASS 1 21 Nov 21:23:29 21:25:48 14° 271° (W) 21:28:07 437.405
AIST 2 21 Nov 21:25:15 21:29:13 40° 119° (ESE) 21:33:16 435.215
UNISAT 6 21 Nov 21:26:55 21:29:46 17° 91° (E) 21:32:39 437.425
PCSat 21 Nov 21:27:18 21:32:34 51° 310° (NW) 21:37:53 145.827
POLYITAN 1 21 Nov 21:31:58 21:33:50 13° 89° (E) 21:35:42 437.675
QB50P2 21 Nov 21:35:42 21:37:56 14° 89° (E) 21:40:09 145.880/145.840
RS-15 21 Nov 21:36:07 21:45:38 32° 5° (N) 21:55:23 29.354- 29.394
CINEMA 3 21 Nov 21:37:49 21:41:25 24° 266° (W) 21:44:55 145.822/145.860
FUNcube-1 21 Nov 21:39:51 21:43:52 42° 262° (W) 21:47:52 145.935
DELFI C3 21 Nov 21:40:00 21:43:10 22° 267° (W) 21:46:23 145.870
CUBEBUG 1 21 Nov 21:41:26 21:45:45 53° 71° (ENE) 21:50:06 437.445
50 SAT 21 Nov 21:43:47 21:47:49 70° 258° (WSW) 21:51:52 437.505
CUBEBUG 2 21 Nov 21:43:47 21:47:35 29° 264° (W) 21:51:18 437.445
DUCHIFAT 1 21 Nov 21:44:32 21:47:18 17° 91° (E) 21:50:02 145.980
UKube-1 21 Nov 21:45:52 21:49:00 19° 268° (W) 21:52:10 .
SPROUT 21 Nov 21:50:39 21:53:30 18° 61° (ENE) 21:56:22 437.525
ANTELSAT 21 Nov 21:54:17 21:58:12 31° 96° (E) 22:02:10 437.575/2403.000
UWE-3 21 Nov 21:54:21 21:57:58 26° 265° (W) 22:01:32 435.000/436.395/437.385
TISAT 1 21 Nov 21:55:24 21:58:40 22° 64° (ENE) 22:01:56 437.305
Oscar 11 21 Nov 22:02:21 22:04:19 13° 272° (W) 22:06:18 145.826/435.025
NANOSAT C BR1 21 Nov 22:02:33 22:06:05 26° 94° (E) 22:09:36 145.865
ESTCUBE 1 21 Nov 22:04:47 22:09:20 89° 257° (WSW) 22:13:56 437.505/2401.250
QB50P1 21 Nov 22:11:35 22:15:23 31° 96° (E) 22:19:09 145.935-145.965
AUBIESAT-1 21 Nov 22:22:58 22:25:43 18° 53° (NE) 22:28:36 437.475
M-CUBED/EXP-1 PRIME 21 Nov 22:24:32 22:27:28 19° 54° (NE) 22:30:34 437.505
VELOX 1 21 Nov 22:24:39 22:28:17 24° 266° (W) 22:31:55 145.980
POPSAT HIP 1 21 Nov 22:35:29 22:39:40 56° 101° (E) 22:43:48 437.405
BEESAT 3 21 Nov 22:39:41 22:43:13 26° 321° (NW) 22:46:48 437.485
ZACube-1 21 Nov 22:43:27 22:44:17 11° 273° (W) 22:45:07 437.345
BUGSAT 1 21 Nov 22:47:19 22:51:26 62° 101° (ESE) 22:55:28 437.445
AISAT 21 Nov 22:49:24 22:51:48 14° 271° (W) 22:54:13 437.250
BEESAT 21 Nov 22:51:04 22:54:01 16° 58° (ENE) 22:56:58 436.000
BEESAT 2 21 Nov 22:51:23 22:54:48 24° 322° (NW) 22:58:15 435.950
TIGRISAT 21 Nov 22:51:37 22:55:58 73° 286° (WNW) 23:00:24 435.000
UNISAT 6 21 Nov 23:02:37 23:06:55 56° 288° (WNW) 23:11:16 437.425
HUMSAT D 21 Nov 23:02:58 23:03:17 10° 273° (W) 23:03:36 437.325/437.525
AIST 2 21 Nov 23:04:09 23:07:58 31° 319° (NW) 23:11:50 435.215
POLYITAN 1 21 Nov 23:06:04 23:10:18 69° 286° (WNW) 23:14:29 437.675
QB50P2 21 Nov 23:10:06 23:14:18 63° 287° (WNW) 23:18:28 145.880/145.840
PCSat 21 Nov 23:14:11 23:17:18 15° 333° (NNW) 23:20:26 145.827
CUSAT 1 21 Nov 23:18:20 23:21:59 36° 76° (ENE) 23:26:42 437.405
CUBEBUG 1 21 Nov 23:19:22 23:22:27 18° 269° (W) 23:25:33 437.445
DUCHIFAT 1 21 Nov 23:19:23 23:23:30 51° 289° (WNW) 23:27:34 145.980
DANDE 21 Nov 23:23:25 23:26:52 32° 75° (ENE) 23:31:17 436.750
SPROUT 21 Nov 23:24:56 23:29:12 57° 259° (W) 23:33:29 437.525
TISAT 1 21 Nov 23:30:11 23:34:16 43° 261° (W) 23:38:22 437.305
ANTELSAT 21 Nov 23:31:09 23:34:59 30° 293° (WNW) 23:38:53 437.575/2403.000
NANOSAT C BR1 21 Nov 23:38:14 23:42:02 33° 292° (WNW) 23:45:50 145.865
ITUPSAT 1 21 Nov 23:41:48 23:46:19 42° 68° (ENE) 23:50:52 437.325
ESTCUBE 1 21 Nov 23:45:55 23:46:54 11° 274° (W) 23:47:53 437.505/2401.250
QB50P1 21 Nov 23:47:37 23:51:13 28° 294° (WNW) 23:54:48 145.935-145.965
RS-15 21 Nov 23:50:19 00:01:08 53° 38° (NE) 00:12:22 29.354- 29.394
SWISSCUBE 21 Nov 23:54:25 23:59:08 60° 71° (ENE) 00:03:53 437.505
AUBIESAT-1 21 Nov 23:56:17 00:00:13 62° 254° (WSW) 00:04:32 437.475
M-CUBED/EXP-1 PRIME 21 Nov 23:58:14 00:02:06 54° 255° (WSW) 00:06:22 437.505
STARS 22 Nov 00:04:20 00:06:06 12° 57° (ENE) 00:07:52 437.465
POPSAT HIP 1 22 Nov 00:12:26 00:15:11 17° 299° (WNW) 00:17:55 437.405
Oscar 19 22 Nov 00:23:51 00:27:51 22° 92° (E) 00:31:50 437.125/150
BUGSAT 1 22 Nov 00:24:06 00:26:28 15° 300° (WNW) 00:28:49 437.445
BEESAT 22 Nov 00:26:30 00:31:17 76° 257° (WSW) 00:36:07 436.000
KKS-1 22 Nov 00:32:32 00:36:25 30° 66° (ENE) 00:40:19 437.445
YUBILEINY 22 Nov 00:37:00 00:41:05 14° 71° (ENE) 00:45:09 435.215
AIST 2 22 Nov 00:47:33 00:47:58 10° 341° (NNW) 00:48:23 435.215
CUSAT 1 22 Nov 01:01:47 01:05:04 23° 265° (W) 01:09:09 437.405
ITAMSAT 1 22 Nov 01:06:33 01:10:30 22° 92° (E) 01:14:25 435.822/435.867
DANDE 22 Nov 01:07:08 01:10:19 23° 264° (W) 01:14:14 436.750
Gurwin Techsat 1B 22 Nov 01:12:13 01:15:10 15° 88° (E) 01:18:05 435.225
ISS 22 Nov 01:16:24 01:19:35 49° 147° (SSE) 01:22:48 145.825
ITUPSAT 1 22 Nov 01:20:23 01:24:22 26° 266° (W) 01:28:24 437.325
MaSat-1 22 Nov 01:22:07 01:24:15 31° 245° (WSW) 01:26:23 437.345
SWISSCUBE 22 Nov 01:34:06 01:37:24 18° 269° (W) 01:40:43 437.505
STARS 22 Nov 01:37:29 01:41:55 89° 75° (ENE) 01:46:21 437.465
Oscar 19 22 Nov 02:02:29 02:07:31 54° 290° (WNW) 02:12:32 437.125/150
RS-15 22 Nov 02:02:59 02:13:53 61° 243° (WSW) 02:25:15 29.354- 29.394
KKS-1 22 Nov 02:09:02 02:13:01 32° 264° (W) 02:17:02 437.445
YUBILEINY 22 Nov 02:27:24 02:36:04 66° 93° (E) 02:44:45 435.215
AO-7 22 Nov 02:40:23 02:46:22 21° 89° (E) 02:52:19 29.400- 29.500
MOZHAYETS 4 22 Nov 02:41:21 02:44:44 21° 62° (ENE) 02:48:08
ITAMSAT 1 22 Nov 02:45:16 02:50:21 57° 290° (WNW) 02:55:24 435.822/435.867
PCSat 22 Nov 02:46:09 02:49:16 15° 27° (NNE) 02:52:23 145.827
Gurwin Techsat 1B 22 Nov 02:50:28 02:55:49 83° 286° (WNW) 03:01:07 435.225
ISS 22 Nov 02:53:05 02:56:17 46° 347° (NNW) 02:59:30 145.825
HORYU 2 22 Nov 03:11:11 03:15:42 79° 104° (ESE) 03:20:11 437.375
STARS 22 Nov 03:18:21 03:19:03 10° 273° (W) 03:19:45 437.465
BEESAT 3 22 Nov 03:40:25 03:43:16 17° 32° (NNE) 03:46:05 437.485
BEESAT 2 22 Nov 03:51:59 03:55:03 19° 34° (NE) 03:58:06 435.950
PRISM 22 Nov 03:55:44 03:59:04 23° 64° (ENE) 04:02:26 437.425
AIST 2 22 Nov 04:06:25 04:09:13 17° 30° (NNE) 04:12:00 435.215
CUBESAT XI-V 22 Nov 04:10:46 04:13:23 15° 58° (ENE) 04:15:59 437.345
SO-50 22 Nov 04:14:39 04:18:51 39° 118° (ESE) 04:23:12 436.795
MOZHAYETS 4 22 Nov 04:17:08 04:21:36 52° 260° (W) 04:26:09
RS-15 22 Nov 04:18:39 04:23:48 14° 266° (W) 04:29:03 29.354- 29.394
YUBILEINY 22 Nov 04:25:50 04:33:33 33° 295° (WNW) 04:41:17 435.215
PCSat 22 Nov 04:28:43 04:34:01 50° 50° (NE) 04:39:17 145.827
STRAND 1 22 Nov 04:29:36 04:33:41 24° 61° (ENE) 04:37:46 437.568
ISS 22 Nov 04:30:13 04:33:22 39° 7° (N) 04:36:30 145.825
AO-7 22 Nov 04:31:51 04:40:16 88° 110° (ESE) 04:48:40 29.400- 29.500
Gurwin Techsat 1B 22 Nov 04:32:07 04:34:59 15° 305° (NW) 04:37:51 435.225
JAS-2 22 Nov 04:46:06 04:53:22 54° 98° (E) 04:59:49 435.910
HORYU 2 22 Nov 04:49:25 04:51:47 14° 302° (WNW) 04:54:09 437.375
Cubesat XI-IV 22 Nov 04:50:32 04:53:36 15° 88° (E) 04:56:39 437.490
BEESAT 3 22 Nov 05:17:55 05:22:09 84° 53° (NE) 05:26:19 437.485
AIST 1 22 Nov 05:28:26 05:30:47 14° 64° (ENE) 05:33:06
BEESAT 2 22 Nov 05:29:40 05:33:55 84° 234° (SW) 05:38:06 435.950
PRISM 22 Nov 05:30:30 05:34:26 39° 262° (W) 05:38:25 437.425
CUTE-I 22 Nov 05:32:01 05:36:50 34° 96° (E) 05:41:37 437.470
AIST 2 22 Nov 05:44:16 05:48:36 74° 51° (NE) 05:52:53 435.215
O/OREOS (USA 219) 22 Nov 05:44:28 05:48:02 23° 103° (ESE) 05:51:35 437.305
CUBESAT XI-V 22 Nov 05:45:28 05:50:11 82° 257° (WSW) 05:54:58 437.345
SO-50 22 Nov 05:55:14 05:59:28 35° 319° (NW) 06:03:49 436.795
ISS 22 Nov 06:06:55 06:10:14 84° 206° (SSW) 06:13:33 145.825
STRAND 1 22 Nov 06:07:30 06:12:32 54° 260° (W) 06:17:36 437.568
PCSat 22 Nov 06:12:32 06:17:12 30° 249° (WSW) 06:21:51 145.827
AO-7 22 Nov 06:25:32 06:32:09 27° 311° (NW) 06:38:46 29.400- 29.500
GONETS M04 22 Nov 06:25:36 06:30:18 16° 72° (ENE) 06:35:02
Cubesat XI-IV 22 Nov 06:29:00 06:34:22 81° 287° (WNW) 06:39:41 437.490
JAS-2 22 Nov 06:31:26 06:38:06 36° 300° (WNW) 06:44:09 435.910
BEESAT 3 22 Nov 06:58:01 06:59:45 12° 251° (WSW) 07:01:28 437.485
AIST 1 22 Nov 07:04:35 07:08:59 69° 264° (W) 07:13:19
BEESAT 2 22 Nov 07:10:48 07:11:29 10° 252° (WSW) 07:12:09 435.950
CUTE-I 22 Nov 07:12:03 07:16:57 38° 294° (WNW) 07:21:48 437.470
O/OREOS (USA 219) 22 Nov 07:22:55 07:27:11 42° 302° (WNW) 07:31:29 437.305
AIST 2 22 Nov 07:24:16 07:26:42 15° 250° (WSW) 07:29:06 435.215
CUBESAT XI-V 22 Nov 07:27:53 07:28:24 10° 275° (W) 07:28:54 437.345
SO-50 22 Nov 07:39:22 07:41:25 13° 342° (NNW) 07:43:29 436.795
ISS 22 Nov 07:44:24 07:46:29 16° 224° (SW) 07:48:34 145.825
HO-68 22 Nov 07:45:16 07:51:11 27° 92° (E) 07:57:03 435.675
CUTE 1.7 & AOD 2 22 Nov 07:46:35 07:49:25 17° 91° (E) 07:52:13 437.475
Oscar 11 22 Nov 08:10:40 08:11:19 10° 87° (E) 08:11:58 145.826/435.025
Cubesat XI-IV 22 Nov 08:10:49 08:13:38 15° 306° (NW) 08:16:27 437.490
GONETS M04 22 Nov 08:16:43 08:25:26 72° 94° (E) 08:34:14
TIGRISAT 22 Nov 08:18:54 08:21:44 18° 62° (ENE) 08:24:33 435.000
DOVE 4 22 Nov 08:21:33 08:24:35 19° 92° (E) 08:27:38 437.250
SEEDS 22 Nov 08:24:23 08:28:19 35° 97° (E) 08:32:15 437.485
DX 1 22 Nov 08:25:54 08:28:05 14° 89° (E) 08:30:15 434.975-435.025
POLYITAN 1 22 Nov 08:28:34 08:31:14 17° 61° (ENE) 08:33:55 437.675
UNISAT 6 22 Nov 08:29:31 08:32:49 22° 64° (ENE) 08:36:08 437.425
QB50P2 22 Nov 08:32:09 08:35:01 18° 62° (ENE) 08:37:52 145.880/145.840
DUCHIFAT 1 22 Nov 08:40:41 08:43:51 21° 63° (ENE) 08:47:02 145.980
GOMX 1 22 Nov 08:43:07 08:47:05 42° 98° (E) 08:51:03 467.674
CANX-2 22 Nov 08:46:06 08:50:24 74° 102° (ESE) 08:54:41 2200.000
BRITE-PL 22 Nov 08:49:49 08:54:00 68° 102° (ESE) 08:58:07 437.365/2234.400
AAUSAT CUBESAT 2 22 Nov 08:49:54 08:54:01 49° 99° (E) 08:58:07 437.432
ZACube-1 22 Nov 08:50:43 08:52:23 12° 89° (E) 08:54:05 437.345
ANTELSAT 22 Nov 08:56:54 09:00:54 40° 69° (ENE) 09:04:54 437.575/2403.000
NANOSAT C BR1 22 Nov 08:58:41 09:02:25 30° 67° (ENE) 09:06:09 145.865
AISAT 22 Nov 09:01:25 09:02:09 10° 87° (E) 09:02:54 437.250
COMPASS 1 22 Nov 09:02:06 09:06:21 75° 103° (ESE) 09:10:36 437.405
HUMSAT D 22 Nov 09:06:52 09:07:52 11° 88° (E) 09:08:52 437.325/437.525
QB50P1 22 Nov 09:07:44 09:11:40 37° 69° (ENE) 09:15:36 145.935-145.965
DELFI C3 22 Nov 09:16:48 09:20:45 42° 98° (E) 09:24:41 145.870
CUTE 1.7 & AOD 2 22 Nov 09:21:30 09:25:40 52° 288° (WNW) 09:29:50 437.475
50 SAT 22 Nov 09:23:20 09:25:22 13° 90° (E) 09:27:23 437.505
SO-50 22 Nov 09:23:42 09:24:09 10° 8° (N) 09:24:37 436.795
FUNcube-1 22 Nov 09:25:27 09:29:03 27° 95° (E) 09:32:41 145.935
CINEMA 3 22 Nov 09:28:30 09:32:38 60° 101° (E) 09:36:50 145.822/145.860
UKube-1 22 Nov 09:29:11 09:33:29 57° 101° (E) 09:37:45 .
CUBEBUG 2 22 Nov 09:31:16 09:35:15 41° 98° (E) 09:39:18 437.445
POPSAT HIP 1 22 Nov 09:31:35 09:35:49 65° 73° (ENE) 09:40:03 437.405
HO-68 22 Nov 09:32:19 09:39:28 69° 292° (WNW) 09:46:33 435.675
UWE-3 22 Nov 09:40:27 09:44:30 45° 99° (E) 09:48:35 435.000/436.395/437.385
BUGSAT 1 22 Nov 09:40:29 09:44:44 68° 73° (ENE) 09:48:58 437.445
Oscar 11 22 Nov 09:43:45 09:48:07 88° 286° (WNW) 09:52:28 145.826/435.025
TIGRISAT 22 Nov 09:53:56 09:58:07 54° 260° (W) 10:02:19 435.000
ESTCUBE 1 22 Nov 09:55:54 09:58:42 16° 90° (E) 10:01:28 437.505/2401.250
DOVE 4 22 Nov 09:58:41 10:02:36 41° 290° (WNW) 10:06:32 437.250
DX 1 22 Nov 10:00:28 10:04:49 68° 287° (WNW) 10:09:07 434.975-435.025
SEEDS 22 Nov 10:00:31 10:04:02 25° 294° (WNW) 10:07:33 437.485
POLYITAN 1 22 Nov 10:02:33 10:06:46 60° 259° (W) 10:11:00 437.675
UNISAT 6 22 Nov 10:05:22 10:09:25 41° 262° (W) 10:13:29 437.425
QB50P2 22 Nov 10:06:22 10:10:34 55° 260° (W) 10:14:46 145.880/145.840
VELOX 1 22 Nov 10:11:27 10:15:49 52° 100° (E) 10:20:07 145.980
DUCHIFAT 1 22 Nov 10:15:22 10:19:28 45° 261° (W) 10:23:34 145.980
GONETS M04 22 Nov 10:15:34 10:23:05 31° 297° (WNW) 10:30:42
GOMX 1 22 Nov 10:21:57 10:25:00 20° 297° (WNW) 10:28:03 467.674
CANX-2 22 Nov 10:23:36 10:25:48 14° 300° (WNW) 10:28:00 2200.000
ZACube-1 22 Nov 10:25:05 10:29:16 72° 286° (WNW) 10:33:30 437.345
AAUSAT CUBESAT 2 22 Nov 10:26:24 10:29:23 19° 297° (WNW) 10:32:21 437.432
BRITE-PL 22 Nov 10:29:57 10:32:01 14° 301° (WNW) 10:34:04 437.365/2234.400
ANTELSAT 22 Nov 10:34:34 10:37:53 22° 267° (W) 10:41:13 437.575/2403.000
NANOSAT C BR1 22 Nov 10:34:34 10:38:17 29° 264° (W) 10:42:02 145.865
AISAT 22 Nov 10:35:00 10:39:28 89° 285° (WNW) 10:43:53 437.250
COMPASS 1 22 Nov 10:39:27 10:41:32 14° 300° (WNW) 10:43:38 437.405
HUMSAT D 22 Nov 10:40:05 10:44:14 79° 285° (WNW) 10:48:25 437.325/437.525
QB50P1 22 Nov 10:44:13 10:47:40 24° 266° (W) 10:51:08 145.935-145.965
DELFI C3 22 Nov 10:52:43 10:55:50 21° 296° (WNW) 10:58:55 145.870
50 SAT 22 Nov 10:57:05 11:01:06 60° 287° (WNW) 11:05:06 437.505
FUNcube-1 22 Nov 11:01:44 11:05:26 31° 292° (WNW) 11:09:11 145.935
SO-50 22 Nov 11:02:52 11:06:33 21° 32° (NNE) 11:10:16 436.795
CUBEBUG 1 22 Nov 11:03:46 11:08:10 69° 102° (ESE) 11:12:30 437.445
UKube-1 22 Nov 11:06:20 11:09:15 18° 299° (WNW) 11:12:10 .
SHINDAISAT 22 Nov 11:06:44 11:08:36 85° 119° (ESE) 11:10:29 437.305
CINEMA 3 22 Nov 11:06:59 11:09:28 16° 299° (WNW) 11:11:57 145.822/145.860
CUBEBUG 2 22 Nov 11:08:35 11:11:46 21° 296° (WNW) 11:14:58 437.445
SPROUT 22 Nov 11:09:29 11:12:39 20° 92° (E) 11:15:48 437.525
POPSAT HIP 1 22 Nov 11:09:57 11:12:10 14° 271° (W) 11:14:24 437.405
TISAT 1 22 Nov 11:12:38 11:16:04 24° 94° (E) 11:19:27 437.305
UWE-3 22 Nov 11:17:44 11:20:48 20° 296° (WNW) 11:23:53 435.000/436.395/437.385
BUGSAT 1 22 Nov 11:18:37 11:20:42 13° 271° (W) 11:22:46 437.445
HO-68 22 Nov 11:21:34 11:25:57 18° 313° (NW) 11:30:19 435.675
Oscar 11 22 Nov 11:22:05 11:23:37 12° 303° (WNW) 11:25:08 145.826/435.025
ESTCUBE 1 22 Nov 11:31:30 11:36:01 63° 288° (WNW) 11:40:29 437.505/2401.250
M-CUBED/EXP-1 PRIME 22 Nov 11:40:20 11:41:51 11° 91° (E) 11:43:22 437.505
Oscar 19 22 Nov 11:43:37 11:48:26 44° 68° (ENE) 11:53:16 437.125/150
VELOX 1 22 Nov 11:48:52 11:52:03 20° 299° (WNW) 11:55:13 145.980
SWISSCUBE 22 Nov 11:53:53 11:55:48 12° 87° (E) 11:57:43 437.505
AO-7 22 Nov 11:56:23 11:59:29 13° 33° (NNE) 12:02:36 29.400- 29.500
AISAT 22 Nov 12:13:38 12:15:26 12° 303° (WNW) 12:17:13 437.250
BEESAT 22 Nov 12:24:27 12:28:13 22° 93° (E) 12:31:56 436.000
ITAMSAT 1 22 Nov 12:27:18 12:32:15 45° 68° (ENE) 12:37:13 435.822/435.867
YUBILEINY 22 Nov 12:33:46 12:41:50 39° 68° (ENE) 12:49:47 435.215
Gurwin Techsat 1B 22 Nov 12:35:47 12:40:27 33° 64° (ENE) 12:45:09 435.225
CUSAT 1 22 Nov 12:36:29 12:38:42 21° 95° (E) 12:40:48 437.405
HORYU 2 22 Nov 12:38:48 12:41:12 15° 58° (ENE) 12:43:36 437.375
CUBEBUG 1 22 Nov 12:41:28 12:44:02 15° 301° (WNW) 12:46:34 437.445
SO-50 22 Nov 12:42:55 12:47:48 87° 52° (NE) 12:52:42 436.795
DANDE 22 Nov 12:44:07 12:46:28 22° 96° (E) 12:48:38 436.750
SPROUT 22 Nov 12:44:53 12:48:59 44° 290° (WNW) 12:53:02 437.525
TISAT 1 22 Nov 12:48:08 12:52:01 36° 292° (WNW) 12:55:52 437.305
AUBIESAT-1 22 Nov 13:10:22 13:15:17 70° 108° (ESE) 13:20:09 437.475
M-CUBED/EXP-1 PRIME 22 Nov 13:12:39 13:17:36 79° 109° (ESE) 13:22:31 437.505
ITUPSAT 1 22 Nov 13:16:53 13:21:43 66° 102° (ESE) 13:26:29 437.325
JAS-2 22 Nov 13:22:41 13:24:04 11° 39° (NE) 13:25:27 435.910
STARS 22 Nov 13:26:13 13:28:23 13° 89° (E) 13:30:32 437.465
